Powrót do katalogu

STARLINK-38020

AktywnyŁącznośćSSO
NORAD 69713·PAYLOAD·🇺🇸 United States

Wystrzelony Jun 28, 2026 z Vandenberg Space Force Base

Loading…

Następne Przeloty (najbliższe 24 godziny)

TLE

ŚwieżeSource: CelesTrak SupGP

Epoka: Sep 15, 2026, 04:24 UTC

1 69713C 26147K   26258.18381944 -.00054750  00000+0 -16992-2 0  2586
2 69713  97.2837 294.6015 0001113  82.0012  73.8856 15.33473570    16

Śledź STARLINK-38020 w czasie rzeczywistym z AllMySat

Download on the App Store